SCP
0 0 0 0 0 0 0 0 0 0 0 0 0 0 0 0 0 0 0 0 0 0 0 0 0 0 0 0 0 0 0 0 0 0 0 0 0 0 0 0 0 0 0 0
0 0 0 0 0 0 0 0 0 0 0 0 0 0 0 0 0 0 0 0 0 0 0 0 0 0 0 0 0 0 0 0 0 0 0 0 0 0 0 0 0 0 0 0
0 0 0 0 0 0 0 0 0 0 0 0 0 0 0 0 0 0 0 0 0 0 0 0 0 0 0 0 0 0 0 0 0 0 0 0 0 0 0 0 0 0 0 0
0 0 0 0 0 0 0 0 0 0 0 0 0 0 0 0 0 0 0 0 0 0 0 0 0 0 0 0 0 0 0 0 0 0 0 0 0 0 0 0 0 0 0 0
0 0 0 0 0 0 0 0 0 0 0 0 0 0 0 0 0 0 0 0 0 0 0 0 0 0 0 0 0 0 0 0 0 0 0 0 0 0 0 0 0 0 0 0
0 0 0 0 0 0 0 0 0 0 0 0 0 0 0 0 0 0 0 0 0 0 0 0 0 0 0 0 0 0 0 0 0 0 0 0 0 0 0 0 0 0 0 0
0 0 0 0 0 0 0 0 0 0 0 0 0 0 0 0 0 0 0 0 0 0 0 0 0 0 0 0 0 0 0 0 0 0 0 0 0 0 0 0 0 0 0 0
0 0 0 0 0 0 0 0 0 0 0 0 0 0 0 0 0 0 0 0 0 0 0 0 0 0 0 0 0 0 0 0 0 0 0 0 0 0 0 0 0 0 0 0
0 0 0 0 0 0 0 0 0 0 -0 -0 -0 0 0 0 0 0 0 0 0 0 0 0 0 0 0 0 0 0 0 0 0 0 0 0 0 0 0 0 0 0 0 0
0 0 0 0 0 0 0 0 0 0 -0 -0 0 0 0 0 0 0 0 0 0 0 0 0 0 0 0 0 0 0 0 0 0 0 0 0 0 0 0 0 0 0 0 0
0 0 0 0 0 0 0 0 0 0 0 0 0 0 0 0 0 0 0 0 0 0 0 0 0 0 0 0 0 0 0 0 0 0 0 0 0 0 0 0 0 0 0 0
0 0 0 0 0 0 0 0 0 0 0 0 0 0 0 0 0 0 0 0 0 0 0 0 0 0 0 0 0 0 0 0 0 0 0 0 0 0 0 0 0 0 0 0
0 0 0 0 0 0 0 0 0 0 0 0 0 0 0 0 0 0 0 0 0 0 0 0 0 0 0 0 0 0 0 0 0 0 0 0 0 0 0 0 0 0 0 0
0 0 0 0 0 0 0 0 0 0 0 0 0 0 0 0 0 0 0 0 0 0 0 0 0 0 0 0 0 -0 0 0 0 0 0 0 0 0 0 0 0 0 0 0
0 0 0 0 0 0 0 0 0 0 0 0 0 0 0 0 0 0 0 0 0 0 0 0 -0 -0 0 0 0 0 0 0 0 0 0 0 0 0 0 0 0 0 0 0
0 0 0 0 0 0 0 0 0 0 0 0 0 0 0 0 0 0 0 0 0 0 -0 -0 -0 -0 -0 -0 0 0 0 0 0 0 0 0 0 0 0 0 0 0 0 0
0 0 0 0 0 0 0 0 0 0 0 0 0 0 0 0 0 0 0 0 0 0 -0 -0 -0 -0 0 0 0 0 0 0 0 0 0 0 0 -0 0 0 0 0 0 0
0 0 0 0 0 0 0 0 0 0 0 0 0 0 0 0 0 0 0 0 0 0 0 -0 -0 -0 0 0 0 0 0 0 0 0 0 0 0 0 0 0 0 0 0 0
0 0 0 0 0 0 0 0 0 0 0 0 0 0 0 0 0 0 0 0 0 0 0 0 0 0 0 0 0 0 0 0 0 0 0 0 0 0 0 0 0 0 0 0
0 0 0 0 0 0 0 0 0 0 0 0 0 0 0 0 0 0 0 0 0 0 0 0 0 0 0 0 0 0 0 0 0 0 0 0 0 0 0 0 0 0 0 0
0 0 0 0 0 0 0 0 0 0 0 0 0 0 0 0 0 0 0 0 0 0 0 0 0 0 0 0 0 0 0 0 0 0 0 0 0 0 0 0 0 0 0 0
0 0 0 0 0 0 0 0 0 0 0 0 0 0 0 0 0 0 0 0 0 0 0 0 0 0 0 0 0 0 0 0 0 0 0 0 0 0 0 0 0 0 0 0
0 0 0 0 0 0 0 0 0 0 0 0 0 0 0 0 0 0 0 0 0 0 0 0 0 0 0 0 0 0 0 0 0 0 0 0 0 0 0 0 0 0 0 0
0 0 0 0 0 0 0 -0 0 0 0 0 0 0 0 0 0 0 0 0 0 0 0 0 0 0 0 0 0 0 0 0 0 0 0 0 0 0 0 0 0 0 0 0
0 0 0 0 0 0 0 0 0 0 0 0 0 0 0 0 0 0 0 0 0 0 0 0 0 0 0 0 0 0 0 0 0 0 0 0 0 0 0 0 0 0 0 0
0 0 0 0 0 0 0 0 0 0 0 0 0 0 0 0 0 0 0 0 0 0 0 0 0 0 0 0 0 0 0 0 0 0 0 0 0 0 0 0 0 0 0 0
0 0 0 0 0 0 0 0 0 0 0 0 0 0 0 0 0 0 0 0 0 0 0 0 0 0 0 0 0 0 0 0 0 0 0 0 0 0 0 0 0 0 0 0
Wind_Speed
10 10 8 11 12 10 12 11 11 11 11 14 8 7 7 6 5 5 5 6 6 5 4 4 3 3 2 2 2 2 2 2 2 2 1 1 1 1 1 1 1 1 1 1
8 8 9 12 15 14 14 13 15 14 17 13 8 6 6 6 6 7 7 8 7 6 5 5 5 4 4 3 3 3 3 3 2 2 2 1 1 1 1 1 1 1 1 1
7 7 7 11 11 12 9 9 10 15 15 7 5 7 7 7 8 8 9 8 8 7 7 6 6 5 5 4 3 3 3 3 2 2 2 2 1 1 1 0 1 1 1 1
5 5 9 9 3 6 8 9 11 11 9 7 8 7 7 7 8 8 8 8 8 7 6 5 5 4 4 4 4 4 4 3 3 3 2 2 2 1 1 1 0 0 1 1
3 6 12 10 4 5 6 8 9 12 12 8 5 4 6 7 8 9 8 8 7 7 6 5 5 5 5 4 4 4 4 4 3 3 3 2 2 2 1 1 1 0 0 0
4 6 10 8 2 2 2 7 6 7 8 6 3 3 7 5 5 6 6 5 5 5 4 5 5 5 6 5 5 5 5 4 3 3 3 3 3 2 1 1 1 1 0 0
8 9 13 9 3 3 4 8 3 5 6 5 7 9 6 3 4 5 5 5 5 5 5 6 6 6 6 6 7 6 4 3 3 3 4 3 2 2 2 1 1 1 0 1
7 9 15 6 5 7 10 4 3 4 5 7 8 7 5 5 5 4 4 4 5 5 5 5 6 7 7 7 6 4 4 4 3 3 3 3 3 2 2 2 1 1 1 1
12 13 8 5 9 8 4 5 5 5 6 7 7 7 6 5 5 5 5 5 5 6 6 5 6 7 9 7 5 5 5 4 4 3 3 3 3 3 2 2 2 1 1 1
9 14 12 10 9 8 7 9 8 7 7 6 7 8 7 6 5 5 5 5 5 6 6 6 6 7 8 6 6 6 6 5 4 4 3 3 2 3 3 3 2 2 2 2
12 12 10 10 11 13 11 9 8 8 8 8 8 8 8 7 7 6 6 5 5 7 8 8 6 7 6 6 7 7 6 5 5 4 4 3 3 3 3 3 4 4 3 3
14 12 9 10 7 7 9 10 10 9 9 8 8 9 8 8 7 6 6 5 6 7 8 7 7 7 6 7 8 8 6 6 5 4 4 4 3 2 3 3 5 5 5 4
20 16 13 14 14 12 11 11 11 10 10 10 9 9 9 8 7 6 6 7 8 8 8 7 7 7 7 7 8 8 7 6 5 4 4 4 4 3 2 2 2 4 4 5
16 13 14 15 15 13 12 12 10 10 9 9 8 7 7 7 6 7 8 8 8 7 7 7 7 8 7 8 8 8 7 7 6 5 5 5 4 4 4 3 2 2 2 4
17 15 16 14 13 11 10 9 9 9 8 8 7 7 8 8 9 9 8 6 5 6 7 7 8 8 7 8 9 8 7 5 5 5 5 5 4 4 4 4 3 2 1 2
12 11 13 14 15 13 10 10 10 11 9 9 8 8 9 9 8 7 6 6 6 8 8 8 9 8 7 8 8 7 6 9 8 5 5 5 4 4 4 4 4 3 3 3
12 14 13 13 14 13 11 11 11 10 9 9 10 8 7 6 6 6 7 7 8 8 8 8 8 6 7 8 8 6 6 7 9 6 5 5 5 5 5 4 4 4 4 4
15 16 14 13 12 12 11 9 9 9 9 9 8 7 7 7 8 8 7 6 5 6 6 7 6 6 7 8 7 6 6 6 6 6 5 5 5 5 4 4 5 4 3 4
13 13 13 12 11 10 9 9 9 9 8 7 7 8 8 8 8 7 5 5 6 8 7 6 9 8 7 9 8 6 6 6 6 5 5 7 6 5 5 5 4 4 4 3
9 9 9 10 8 8 8 8 7 7 6 6 6 6 6 7 6 5 5 6 7 6 5 6 7 6 7 8 10 6 7 7 7 6 5 5 5 5 5 5 5 4 4 4
8 8 8 8 8 7 7 6 6 6 5 5 6 7 7 6 5 5 5 6 6 5 5 8 6 5 6 7 10 6 7 7 7 6 6 6 5 5 5 5 5 5 4 4
6 7 7 7 6 6 5 4 4 5 4 5 5 5 5 5 5 5 6 6 4 6 5 4 5 7 8 9 6 6 7 7 6 6 6 6 6 6 5 5 5 5 4 4
7 6 6 6 5 5 5 4 4 5 5 6 6 6 6 5 5 5 6 4 3 6 5 4 7 10 12 7 6 6 7 7 7 6 6 6 6 6 5 6 5 5 4 4
7 7 6 5 3 3 5 5 4 4 5 5 5 6 5 4 4 5 4 4 6 7 5 6 10 11 11 5 5 6 6 6 6 6 5 5 5 5 5 5 5 4 4 4
7 6 6 5 5 5 5 4 3 3 3 3 4 4 4 4 4 4 3 4 6 6 4 6 10 10 7 5 5 6 6 6 6 5 5 5 5 5 4 4 4 4 4 4
7 6 6 6 6 5 4 3 3 3 3 4 3 3 3 3 3 3 3 4 5 6 4 3 5 7 5 5 5 6 5 6 6 6 5 5 5 5 4 4 5 4 4 3
6 5 4 4 4 4 4 4 4 5 5 5 4 3 3 3 3 3 3 3 4 4 3 3 4 4 4 5 5 5 5 4 5 5 5 5 4 4 4 5 4 3 3 3
Wind_Direction
253 260 256 252 250 229 218 217 226 247 250 262 259 252 249 247 241 237 237 230 221 219 218 211 207 208 200 193 186 172 159 163 184 182 159 138 128 112 97 100 103 113 108 97
275 263 263 263 254 238 233 230 238 256 268 261 254 248 246 242 233 231 235 231 224 219 214 211 208 205 201 196 192 177 178 187 191 174 154 153 151 129 107 99 93 105 122 133
279 299 311 272 243 215 214 214 209 234 247 258 255 248 241 235 231 230 233 232 224 217 213 211 207 200 198 195 180 176 186 189 189 181 174 181 159 131 133 136 73 85 136 140
287 323 262 247 232 199 217 238 223 235 247 243 239 248 243 226 222 232 232 227 221 215 213 210 203 195 189 178 176 180 185 190 191 185 185 177 159 164 183 173 167 153 164 170
258 274 278 286 259 194 206 265 231 233 250 255 256 292 278 236 221 227 227 221 216 210 204 198 196 190 177 180 183 188 194 198 197 189 183 178 184 195 192 164 161 185 190 170
228 251 259 258 257 182 127 277 249 214 238 244 178 250 266 247 229 235 231 218 208 200 191 193 197 180 179 187 190 202 203 201 196 188 185 191 198 196 184 166 178 181 217 210
227 248 266 259 236 145 202 246 238 202 221 211 204 224 246 248 237 231 228 217 199 190 195 200 188 176 188 194 205 205 192 183 184 188 189 192 190 181 175 171 163 178 235 277
204 226 252 230 158 197 226 253 245 226 221 222 235 249 254 245 239 233 229 218 201 199 209 201 184 182 195 208 207 184 174 177 186 191 191 181 177 179 172 165 164 201 232 289
206 224 244 210 214 234 231 244 249 240 240 230 238 243 243 240 236 232 226 221 208 204 211 208 194 190 201 208 183 171 173 182 188 189 191 184 179 180 173 173 179 203 215 247
250 257 255 253 252 258 246 243 252 250 249 237 238 242 242 240 238 235 228 221 212 203 208 215 208 204 207 191 173 173 180 186 184 183 189 188 185 183 182 187 192 203 215 236
251 262 272 258 243 248 253 252 256 256 244 235 235 241 237 237 237 232 229 219 207 207 213 217 208 209 205 185 172 178 183 185 184 187 186 188 193 198 197 203 197 200 212 213
246 242 235 252 246 240 248 253 252 252 254 243 229 236 238 237 233 226 224 219 214 216 218 216 204 207 202 187 178 178 185 188 187 186 187 185 185 207 230 221 223 225 220 216
249 257 253 261 264 258 254 255 252 246 245 249 245 234 231 233 228 222 222 220 218 219 219 214 205 207 202 189 182 184 188 188 185 186 187 186 185 191 211 245 234 230 228 233
249 256 262 261 260 259 255 254 252 250 246 241 240 236 229 229 227 222 224 224 221 218 217 210 207 213 201 186 183 188 187 187 185 188 189 188 191 194 197 204 222 246 244 238
247 241 249 260 263 261 257 255 254 253 248 245 236 232 226 224 227 229 228 219 212 214 217 210 213 219 195 183 185 187 185 184 183 184 187 187 188 193 197 203 211 223 238 246
254 250 249 254 258 259 255 248 247 251 244 240 237 233 228 225 228 228 223 206 203 216 217 212 218 216 188 184 185 186 190 188 180 181 184 184 187 193 197 201 208 212 217 219
253 257 256 259 257 255 249 243 241 245 242 238 237 233 227 226 229 231 229 217 213 220 217 212 217 203 186 185 184 184 183 185 182 181 187 190 192 197 198 199 206 214 220 217
247 252 254 255 258 258 255 247 242 240 237 235 231 225 220 220 226 231 228 219 218 230 228 217 205 189 186 185 183 179 178 180 182 187 189 191 195 196 197 203 209 214 220 221
255 256 258 258 255 252 251 248 243 239 235 224 216 220 223 225 227 228 217 206 212 230 234 213 198 188 188 188 179 175 177 180 184 188 189 197 199 196 199 204 207 209 209 211
272 268 265 264 259 249 249 249 242 236 225 210 212 219 226 229 225 220 211 217 223 223 210 195 191 190 189 186 178 176 180 184 188 189 189 192 194 196 199 203 205 207 209 210
284 284 281 273 267 260 251 245 234 229 219 203 209 219 226 228 218 208 210 235 240 218 203 193 188 189 187 183 180 179 182 186 189 190 192 195 196 198 199 202 204 207 209 210
281 280 276 272 268 269 263 243 228 224 216 214 218 220 222 227 221 222 226 231 232 204 194 192 190 192 189 183 180 182 186 187 188 189 192 193 196 199 201 202 204 207 208 208
282 276 269 260 254 261 269 252 229 217 216 216 217 218 221 223 212 216 241 234 212 202 193 196 199 195 190 182 180 184 187 189 190 192 194 194 196 199 201 203 205 205 205 207
281 279 272 263 250 244 253 252 236 224 219 222 222 220 219 226 235 230 227 213 206 202 200 202 198 195 186 181 181 185 189 191 192 193 191 191 193 196 197 198 202 203 203 204
268 267 264 258 248 245 245 243 235 233 227 232 234 227 221 217 223 227 208 204 202 195 196 199 194 190 183 180 185 188 190 192 190 187 187 188 189 192 195 196 197 197 199 202
261 257 251 240 239 242 233 221 226 228 224 235 240 228 222 220 218 210 199 196 194 191 189 185 183 183 181 183 187 188 189 192 193 191 187 186 187 189 192 196 196 197 197 199
260 256 251 249 245 232 224 220 224 228 222 222 232 223 209 202 195 193 189 187 187 189 184 179 178 177 180 185 186 184 182 182 181 181 181 183 184 187 189 190 190 190 191 194